Weather Roundup
Issued by NWS Springfield, MO

Home | Current Version | Previous Version | Text Only | Print | Product List | Glossary On
Versions: 1 2 3 4 5 6 7 8 9 10 11 12 13 14 15 16 17 18 19 20 21 22 23 24 25 26 27 28 29 30 31 32 33 34 35 36 37 38 39 40 41 42 43 44 45 46 47 48 49 50
000
NZUS99 KSGF 260707
HRRSGF

HOURLY WEATHER
NATIONAL WEATHER SERVICE SPRINGFIELD MO
200 AM CDT MON SEP 26 2016

......SGF CWA......

CITY           SKY/WX    TMP DP  RH WIND       PRES   REMARKS
SPRINGFIELD    LGT RAIN  60  57  89 N9        30.20S
JOPLIN         CLOUDY    61  59  93 N3          N/A
WEST PLAINS    RAIN      61  56  83 N12G22    30.17R
ROLLA          LGT RAIN  59  57  93 NW8       30.18R
OSAGE BEACH    LGT RAIN  59  56  89 CALM      30.19F
BRANSON        LGT RAIN  57  57 100 N7        30.20S

......SURROUNDING SGF CWA......

CITY           SKY/WX    TMP DP  RH WIND       PRES   REMARKS
CHANUTE        PTCLDY    60  57  89 NW3       30.21F
PARSONS        CLOUDY    60  59  96 N3        30.22F
COFFEYVILLE    CLOUDY    61  60  97 N5        30.21F
EMPORIA        CLEAR     53  48  83 NW7       30.25R
GROVE OK       DRIZZLE   61  61 100 CALM      30.20F
ROGERS AR      LGT RAIN  60  57  89 NE9       30.21S
SILOAM SPRINGS CLOUDY   N/A N/A N/A NE5         N/A
HARRISON AR    CLOUDY    62  60  93 N6        30.19R
NEAR YELLVILLE CLOUDY    64  57  77 N6        30.14R

......KANSAS AND MISSOURI......

CITY           SKY/WX    TMP DP  RH WIND       PRES   REMARKS
KANSAS CTY INT CLEAR     56  53  90 NW7       30.22R
DOWNTOWN KC    CLEAR     60  56  86 W3        30.21R
COLUMBIA       MOCLDY    61  59  93 W6        30.17F
SEDALIA        PTCLDY    61  57  87 W5        30.19F
ST JOSEPH      CLEAR     51  47  86 N3        30.23R
ST LOUIS       CLOUDY    63  55  75 NW15      30.12F
SPIRIT OF STL  CLOUDY    63  56  78 NW12G18   30.12S
KIRKSVILLE     CLOUDY    58  52  80 W5        30.16S
WICHITA        PTCLDY    58  48  69 N8        30.27R
TOPEKA         CLEAR     54  45  71 NW7       30.24R HAZE
OLATHE         CLEAR     58  55  90 NW6       30.22R

......TENNESSEE......

CITY           SKY/WX    TMP DP  RH WIND       PRES   REMARKS
MEMPHIS        PTCLDY    76  69  79 NW7       29.99F
NASHVILLE      CLEAR     68  65  90 S6        30.01F

......ARKANSAS.......

CITY           SKY/WX    TMP DP  RH WIND       PRES   REMARKS
FAYETTEVILLE   LGT RAIN  58  57  97 NE5       30.20R
FT SMITH       CLOUDY    70  61  73 N8        30.12S
LITTLE ROCK    CLOUDY    77  69  76 N12       30.06R

......OKLAHOMA.......

CITY           SKY/WX    TMP DP  RH WIND       PRES   REMARKS
TULSA          CLOUDY    63  61  93 NW5       30.19S
PONCA CITY     PTCLDY    58  54  86 CALM      30.24R
MCALESTER      LGT RAIN  63  59  87 N5        30.17S
OKLAHOMA CITY  MOCLDY    64  54  69 N9        30.23R

......IOWA............

CITY           SKY/WX    TMP DP  RH WIND       PRES   REMARKS
DES MOINES     CLEAR     55  44  66 NW8       30.14S
QUAD CITIES    CLOUDY    61  51  70 W9        30.05F

......ILLINOIS........

CITY           SKY/WX    TMP DP  RH WIND       PRES   REMARKS
QUINCY         MOCLDY    61  52  72 W6        30.13R
CHICAGO        CLOUDY    62  54  74 W15       29.96S




USA.gov is the U.S. government's official web portal to all federal, state and local government web resources and services.